Back to catalog

COSMOS 1275 DEB

AlivePO
NORAD 42192·DEBRIS·🇷🇺 Russia

Launched Jun 4, 1981 from Plesetsk Cosmodrome

Loading…

Next Passes (next 24 hours)

TLE

FreshSource: Space-Track

Epoch: Sep 13, 2026, 04:16 UTC

1 42192U 81053TG  26256.17819904  .00001024  00000-0  98576-3 0  9990
2 42192  83.0867  63.0196 0124998 300.1603  58.7217 13.75894144640054

Track COSMOS 1275 DEB in real time with AllMySat

Download on the App Store